SCP
0 -0 -0 -0 -0 -0 0 -0 0 -0 -0 0 0 -0 -0 -0 -0 0 0 0 -0 -0 -0 -0 0 0 -0 -0 0 0 0 0 0 0 -0 -0 -0 -0 -0 -0 -0 -0 -0 -0 -0 -0 -0 -0 -0
-0 0 0 0 -0 -0 0 -0 0 0 -0 0 0 -0 -0 -0 0 0 0 0 -0 -0 -0 -0 0 0 -0 0 0 0 0 0 0 0 0 0 -0 -0 -0 -0 -0 -0 -0 -0 -0 0 0 0 0
0 -0 -0 -0 -0 -0 0 -0 -0 0 0 0 0 0 0 0 0 0 -0 -0 -0 0 0 -0 -0 0 0 0 0 0 0 0 0 0 0 0 0 0 0 0 0 0 0 0 0 0 0 0 0
-0 -0 -0 0 0 0 0 0 0 0 0 0 -0 0 0 0 0 0 0 -0 -0 0 0 -0 0 0 -0 -0 0 0 0 0 0 0 0 0 0 0 0 0 0 0 0 0 0 0 0 0 0
-0 -0 0 -0 0 0 0 0 0 0 0 0 -0 0 0 0 0 0 0 0 0 0 0 0 0 0 -0 -0 -0 -0 0 0 0 0 0 0 0 0 0 0 0 0 0 0 0 0 0 0 0
0 0 0 0 0 0 0 0 0 0 0 0 0 0 0 0 0 0 0 0 0 0 0 0 0 -0 -0 -0 -0 -0 0 0 0 0 0 0 0 0 0 0 0 0 0 0 0 0 0 0 0
0 -0 -0 -0 0 0 0 0 0 0 0 0 0 0 0 0 0 0 0 0 0 0 0 0 -0 -0 -0 -0 -0 -0 -0 0 0 0 0 0 0 0 0 0 0 0 0 0 0 0 0 0 0
0 0 -0 0 0 0 0 0 0 -0 0 0 0 0 1 0 0 0 0 0 0 0 0 0 0 -0 -0 -0 -0 -0 -0 0 0 0 0 0 0 0 0 0 0 0 0 0 0 0 0 0 0
0 -0 0 0 -0 0 0 -0 0 0 0 0 0 1 1 0 0 0 0 0 0 0 0 0 0 0 -0 0 0 0 0 -0 0 0 0 0 -0 0 0 0 1 0 0 0 0 0 0 0 0
-0 -0 0 0 0 0 0 0 0 -0 0 0 1 1 1 0 0 0 0 0 0 0 0 0 0 0 0 0 0 -0 -0 -0 -0 -0 0 -0 -0 0 -0 1 1 0 0 0 0 0 0 0 0
0 -0 0 0 0 0 0 0 0 0 0 0 0 0 0 0 0 0 0 0 -0 0 0 0 0 1 0 0 0 -0 -0 -0 0 -0 -0 -0 -0 0 0 0 0 0 0 0 0 0 0 0 0
0 -0 -0 0 0 0 -0 -0 0 0 0 0 0 0 0 0 -0 -0 0 0 -0 0 -0 1 1 1 0 0 1 -0 0 0 -0 0 0 -0 -0 0 0 0 0 0 0 0 1 1 2 1 0
0 -0 0 0 0 0 -0 0 -0 0 0 0 0 0 0 0 -0 -0 -0 -0 0 -0 0 0 2 0 0 -0 -1 -0 1 0 1 0 1 0 0 0 0 0 0 1 1 1 1 1 1 0 0
0 0 0 0 -0 0 0 0 -0 0 0 0 0 0 0 0 1 -0 -0 -0 -0 -0 1 0 1 1 1 1 0 1 1 2 1 1 1 1 1 1 0 0 0 0 1 1 1 1 1 1 0
0 0 0 0 0 -0 0 0 -0 0 0 0 0 1 1 2 3 3 3 2 0 2 5 3 1 1 2 1 1 1 1 2 1 1 1 1 1 1 1 0 1 0 1 1 0 1 1 0 0
0 0 0 -0 -0 0 0 0 0 0 0 -0 0 1 1 0 1 1 1 1 2 4 4 2 2 2 1 1 3 1 1 2 1 2 1 2 1 1 1 0 0 1 1 1 0 1 0 0 0
0 0 -0 0 0 0 0 -0 0 0 0 0 1 1 0 0 0 0 0 0 0 0 2 1 1 0 1 4 1 2 2 2 2 2 1 2 1 1 1 0 0 1 0 1 1 1 1 0 0
0 0 0 -0 0 -0 0 0 0 0 0 1 1 1 0 0 0 0 0 0 0 0 0 0 0 0 1 0 -0 0 1 1 1 1 1 2 1 1 1 1 0 1 0 0 1 1 1 0 0
0 -0 0 0 0 0 0 0 0 0 1 1 1 0 0 0 0 0 0 0 0 0 0 0 0 0 0 0 1 1 0 1 1 1 2 1 2 1 1 1 1 1 1 1 1 0 0 0 0
-0 -0 -0 0 0 0 0 0 0 0 1 1 1 1 0 0 0 0 0 0 0 0 0 0 0 0 0 0 0 0 1 2 2 1 2 1 1 1 1 1 1 2 1 2 1 1 0 0 0
0 -0 -0 -0 0 0 0 1 0 0 0 0 0 0 0 0 0 0 0 0 0 0 0 0 0 0 0 0 0 0 0 1 0 0 0 0 0 1 2 2 2 2 2 1 3 1 1 1 1
0 0 0 0 0 0 0 0 1 0 0 0 0 0 0 0 0 0 0 0 0 0 0 0 0 0 0 0 0 0 0 0 0 0 0 0 0 0 1 1 1 2 2 3 2 2 2 2 1
0 0 0 0 0 0 0 0 1 0 0 0 0 0 0 0 0 0 0 0 0 0 0 0 0 0 0 0 0 0 0 0 0 0 0 0 0 0 0 1 1 1 2 3 2 2 3 3 3
0 0 0 0 0 0 -0 0 0 0 0 0 0 0 0 0 0 0 0 0 0 0 0 0 0 0 0 0 0 0 0 0 0 0 0 0 0 0 0 0 0 0 0 0 1 2 3 3 3
0 -0 -0 0 0 0 0 0 1 0 0 0 0 0 0 0 0 0 0 0 0 0 0 0 0 0 0 0 0 0 0 0 0 0 0 0 0 0 0 0 0 0 0 0 0 0 1 2 2
0 0 -0 0 -0 0 0 0 0 0 0 0 0 0 0 0 0 0 0 0 0 0 0 0 0 0 0 0 0 0 0 0 0 0 0 0 0 0 0 0 0 0 0 0 0 0 1 1 2
0 0 0 0 0 0 0 0 0 0 0 0 0 0 0 0 0 0 0 0 0 0 0 0 0 0 0 0 0 0 0 0 0 0 0 0 0 0 0 0 0 0 0 0 0 0 1 1 1
0 0 0 0 0 0 -0 0 0 0 0 0 0 0 0 0 0 0 0 0 0 0 0 0 0 0 0 0 0 0 0 0 0 0 0 0 0 0 0 0 0 0 0 0 0 0 0 0 0
0 0 0 0 0 0 0 0 0 0 0 0 0 0 0 0 0 0 0 0 0 0 0 0 0 0 0 0 0 0 0 0 0 0 0 0 0 0 0 0 0 0 0 0 0 0 0 0 0
0 0 0 0 0 0 0 0 0 0 0 0 0 0 0 0 0 0 0 0 0 0 0 0 0 0 0 0 0 0 0 0 0 0 0 0 0 0 0 0 0 0 0 -0 -0 -0 -0 0 0
Wind_Speed_500mb
26 29 13 16 15 19 8 28 15 17 22 16 7 10 27 32 29 6 20 21 27 28 28 25 21 17 15 16 17 18 16 15 14 12 12 15 17 20 22 22 18 13 9 8 7 7 5 5 5
15 20 18 25 22 29 12 43 27 22 20 11 6 7 5 28 25 26 27 25 30 29 29 25 22 20 17 16 15 16 15 14 14 13 14 15 16 18 21 21 18 13 8 7 7 5 3 3 4
20 19 29 21 27 26 4 28 26 21 10 8 8 8 12 21 16 15 24 31 31 30 29 25 22 20 19 17 15 14 14 14 15 14 13 12 13 15 18 20 18 14 10 8 6 5 6 6 6
12 22 24 21 37 25 21 25 15 15 14 5 4 19 23 12 10 18 31 33 30 28 27 28 26 23 20 18 15 13 11 11 13 12 12 11 12 13 16 19 19 16 14 12 11 12 12 10 11
17 27 24 29 22 12 15 18 13 12 22 14 8 13 30 17 24 29 33 31 31 30 26 30 28 25 21 18 15 12 11 10 11 11 11 10 11 12 14 16 18 17 17 16 15 13 13 14 14
34 34 26 30 19 10 7 17 16 9 28 18 14 15 21 14 22 27 32 31 30 32 28 29 29 26 22 18 15 12 12 11 10 9 9 9 8 10 12 15 17 17 17 15 15 15 14 15 15
33 27 30 41 8 3 4 21 22 25 8 24 9 9 21 23 22 30 33 31 29 28 28 28 27 26 22 17 14 13 11 10 8 7 7 6 6 8 11 13 15 16 17 17 17 17 18 19 18
41 26 37 34 29 15 16 27 8 21 22 8 10 4 26 40 29 28 26 27 27 26 22 21 22 23 19 19 15 13 10 9 6 4 5 6 7 9 13 15 18 20 22 23 23 22 22 21 19
27 28 29 36 30 22 13 21 17 8 17 22 20 27 20 26 26 26 21 21 23 24 23 23 16 14 17 10 11 10 8 7 5 6 7 6 2 15 15 18 20 24 26 27 27 26 25 23 19
38 26 37 28 23 12 10 11 15 22 25 51 44 27 14 13 18 22 21 9 16 20 22 19 22 17 12 9 5 8 8 5 3 2 11 3 6 12 15 18 27 27 26 26 24 25 27 24 21
37 34 36 9 15 18 15 12 8 27 8 35 14 5 10 13 24 6 24 26 49 17 15 19 26 22 5 18 8 5 5 5 5 11 9 5 8 9 10 11 24 21 19 24 25 27 20 20 40
36 41 39 30 14 20 24 27 13 13 17 9 12 9 15 16 26 26 11 25 69 20 6 15 14 25 9 15 7 7 8 6 6 7 10 2 8 11 12 10 14 18 17 21 19 23 29 24 23
21 36 30 24 20 22 34 12 37 21 17 15 7 9 17 30 36 29 28 5 17 49 4 11 14 5 11 16 13 16 18 4 7 8 9 8 9 13 13 14 14 22 21 28 30 31 42 43 37
15 30 25 23 37 26 21 27 37 35 23 29 29 21 7 17 34 32 33 36 16 17 35 10 9 16 28 24 21 15 11 12 8 8 10 11 10 13 13 17 17 21 24 27 24 30 37 41 44
13 23 22 28 22 24 11 27 38 20 12 29 4 33 25 36 36 29 30 18 6 15 7 7 2 8 12 15 5 6 3 6 7 9 18 11 14 15 18 16 22 27 27 35 25 27 32 38 36
22 22 26 32 26 22 11 27 22 12 14 28 43 33 33 38 38 33 26 22 30 19 11 4 9 9 19 19 33 24 22 7 6 9 5 14 16 20 20 19 23 27 31 26 23 23 25 30 42
16 26 17 23 14 22 23 17 17 11 14 10 22 32 30 32 34 39 36 29 21 23 17 12 8 17 18 10 28 16 10 6 4 4 11 15 18 20 22 25 30 38 36 33 27 35 28 30 30
12 19 7 11 22 13 11 18 14 17 17 32 27 33 30 32 35 35 37 35 32 27 23 31 27 17 19 36 41 26 15 13 12 14 12 15 14 20 26 20 26 35 22 21 23 23 25 23 24
24 19 11 18 18 6 15 13 23 29 21 18 17 21 26 29 27 33 42 42 37 39 34 24 19 19 15 9 15 24 24 17 13 16 18 18 20 23 29 25 22 34 22 26 27 30 27 28 27
19 21 21 15 13 17 21 15 3 17 22 22 15 19 22 25 29 34 39 41 45 43 40 40 27 16 6 8 15 35 19 17 11 7 16 21 24 25 27 32 33 25 33 29 41 40 31 34 29
21 25 22 22 14 20 23 24 18 15 21 22 21 20 21 21 25 28 34 40 40 40 38 36 36 32 23 15 6 4 10 13 21 19 22 35 31 30 26 25 26 30 34 32 37 40 33 36 40
26 10 12 20 15 26 36 19 27 26 20 19 21 22 19 22 24 27 30 35 38 34 33 37 34 31 27 24 24 27 26 27 30 29 30 41 31 32 33 40 38 34 37 40 39 35 43 45 48
10 11 13 17 21 28 36 23 29 31 26 23 20 21 20 18 21 23 28 28 33 35 34 33 29 29 29 32 35 35 38 37 39 40 46 49 36 36 32 33 45 38 40 47 47 54 58 54 52
15 19 25 25 27 28 42 27 25 22 29 23 21 17 14 14 15 19 20 23 27 27 29 30 33 33 35 34 34 35 39 43 46 44 49 35 36 39 33 35 42 47 55 56 58 54 57 59 60
19 24 21 25 26 25 9 13 27 18 22 25 19 16 9 8 10 15 18 21 24 26 27 27 30 30 31 32 34 37 37 39 35 43 37 42 42 42 43 47 46 45 47 49 62 59 55 61 63
22 15 19 29 26 21 25 14 15 23 29 24 16 10 5 5 9 15 18 21 24 26 29 29 31 34 39 38 36 33 34 35 36 37 42 42 43 40 45 43 44 43 47 50 51 56 62 60 60
27 17 12 19 28 26 29 17 19 24 27 26 19 12 8 3 5 13 16 21 24 26 29 34 38 35 37 40 39 40 41 42 41 44 43 41 48 49 50 52 54 54 50 47 51 53 54 55 57
20 20 16 16 20 23 22 5 17 23 21 22 19 14 20 7 3 12 17 22 25 27 31 35 36 38 38 39 40 41 42 41 41 43 42 44 42 40 38 35 36 37 40 40 44 45 52 48 45
8 18 15 10 16 21 21 5 12 11 21 20 21 11 1 6 12 18 21 23 26 30 33 34 37 40 41 40 41 43 41 39 38 36 36 36 35 36 35 38 36 39 45 33 36 38 39 38 35
18 22 19 15 20 23 18 11 11 13 20 15 17 8 5 8 15 20 22 23 28 31 34 35 36 37 39 40 41 41 40 38 34 33 36 36 38 36 35 32 33 33 38 30 28 29 30 22 17
Wind_Direction_500mb
331 350 321 271 250 232 314 85 88 4 27 51 46 288 59 38 15 44 118 118 136 146 158 163 160 147 135 129 143 163 179 183 175 165 160 161 167 175 179 177 173 164 152 156 160 167 184 198 193
323 292 284 269 260 276 52 283 66 54 57 81 122 167 222 77 60 97 124 132 142 144 154 164 160 147 136 130 138 155 172 182 180 179 175 175 177 181 188 191 191 185 178 166 154 151 168 224 227
319 281 275 244 264 284 87 23 24 90 63 87 120 338 23 71 52 103 129 141 147 142 145 160 159 152 143 134 133 140 157 171 179 181 183 179 184 188 192 197 201 202 204 206 221 249 267 264 251
297 259 247 250 267 49 343 3 1 126 131 59 40 88 93 54 115 134 134 143 142 142 152 159 161 158 150 137 129 126 138 162 172 177 179 181 187 193 198 201 206 214 227 241 254 269 275 272 270
274 266 267 252 284 3 340 351 318 159 90 81 320 116 96 79 111 130 141 143 144 145 163 162 163 159 153 143 135 134 138 152 171 175 179 185 186 194 201 206 213 227 243 256 266 268 269 269 269
269 253 277 263 211 80 281 340 310 318 121 136 107 119 87 119 132 142 147 147 147 151 154 161 161 159 158 152 148 151 150 154 172 183 188 192 197 203 209 216 227 239 250 258 267 270 269 269 268
256 281 278 286 324 49 18 324 333 335 240 118 118 117 116 136 146 150 148 149 150 149 155 155 161 160 160 160 164 166 167 158 168 191 202 207 217 232 240 241 245 248 253 260 264 266 269 273 274
253 272 277 272 282 216 93 297 18 270 69 198 67 304 157 142 149 150 150 146 145 146 150 152 160 160 159 166 172 174 179 172 175 204 231 238 245 254 256 260 257 263 265 266 264 266 272 276 277
247 262 261 265 247 257 134 281 79 297 269 30 51 38 46 101 145 145 144 147 147 148 148 148 147 153 141 167 175 178 187 195 193 213 233 245 277 303 312 303 283 276 270 268 266 268 273 274 268
236 242 251 276 356 319 60 285 358 259 174 39 56 71 73 121 149 142 66 163 169 156 145 151 142 142 145 157 233 168 187 182 163 207 287 116 255 229 230 250 290 290 277 274 271 277 276 270 272
228 249 265 269 296 288 309 228 236 293 68 96 103 137 358 1 19 37 53 2 337 132 149 148 147 145 125 167 27 200 160 160 217 206 206 297 226 296 305 298 301 319 309 308 280 303 289 268 260
234 251 261 291 164 254 261 268 231 233 98 82 56 15 69 119 32 10 335 48 1 357 49 141 150 160 169 223 127 225 173 174 171 229 238 275 332 291 300 273 284 287 283 272 261 254 245 246 252
246 263 240 263 259 221 265 276 281 256 258 216 295 235 70 62 96 79 78 210 285 292 358 358 239 226 252 188 182 201 184 148 239 262 255 215 256 277 281 271 272 266 278 287 280 271 267 272 257
262 249 260 249 256 234 244 259 264 263 285 298 303 119 47 69 68 98 99 133 241 324 341 308 186 203 206 204 197 216 230 219 239 260 265 282 295 288 299 307 309 291 274 283 283 280 279 277 275
267 264 246 253 247 253 243 263 252 311 314 295 87 94 66 60 72 81 87 107 109 132 177 211 228 261 229 220 215 271 211 214 235 261 290 284 278 296 307 305 286 300 300 293 295 285 281 283 277
242 235 252 202 213 220 213 272 51 352 271 268 83 86 65 52 59 72 95 125 135 124 155 253 172 290 303 279 242 228 226 241 236 258 276 291 308 309 297 297 298 284 287 293 287 268 275 273 273
208 255 212 124 186 244 199 246 31 338 265 199 76 70 57 38 45 56 60 79 112 148 199 169 209 251 261 238 288 185 169 153 248 354 305 274 277 289 292 294 286 284 298 281 263 277 278 281 275
211 236 176 263 154 222 226 69 15 341 3 77 75 66 57 46 39 46 57 63 70 95 120 147 164 187 242 302 325 349 2 359 351 356 325 320 311 304 296 301 293 296 300 285 277 265 274 257 261
315 307 285 197 121 268 47 86 38 11 65 68 66 62 61 59 55 49 53 56 56 75 74 111 128 151 238 351 313 341 357 5 2 342 312 305 291 291 297 304 294 299 289 271 261 275 271 264 259
259 254 253 256 138 227 146 104 70 80 71 74 84 83 78 65 54 49 53 52 46 59 53 56 80 78 278 281 341 276 346 357 17 322 9 305 302 310 309 292 288 281 286 274 287 283 265 270 262
237 257 256 268 162 220 153 172 168 130 122 112 101 85 72 63 63 58 53 52 47 47 42 47 51 53 49 34 14 341 359 13 339 340 333 294 308 287 285 287 290 285 269 276 279 284 270 269 265
271 144 297 275 226 233 188 238 173 165 146 136 119 100 73 63 59 53 51 48 47 45 34 34 29 25 16 9 2 352 349 343 331 330 318 306 313 315 309 304 287 285 274 265 273 275 276 268 270
3 318 277 276 255 253 204 229 138 161 166 147 138 118 110 84 58 49 42 41 38 32 26 19 13 4 355 347 339 330 318 311 307 300 298 301 317 297 307 305 286 275 265 270 267 264 268 269 269
332 271 249 255 254 252 252 254 154 181 172 160 135 111 87 62 50 40 35 32 34 23 22 17 7 360 345 337 327 320 311 303 301 300 299 309 297 304 300 286 288 270 267 269 270 273 270 270 267
238 259 258 250 231 253 35 283 79 109 113 153 162 139 96 43 23 19 19 23 19 17 12 10 4 1 352 347 338 334 324 322 318 319 314 305 308 304 298 295 299 298 292 289 272 272 272 272 271
315 322 295 301 296 312 160 248 98 108 114 128 139 140 104 23 12 11 13 14 12 3 5 0 355 349 350 346 342 335 331 326 323 313 313 312 305 301 295 304 290 291 295 298 295 295 279 279 278
288 243 339 300 283 267 266 109 128 133 132 144 159 170 168 147 355 5 359 6 6 5 357 354 351 346 346 344 339 334 332 328 322 319 318 314 310 303 306 301 299 296 297 294 289 285 289 284 278
259 328 285 238 261 272 283 293 75 162 156 158 168 192 194 199 1 356 352 357 1 358 352 348 350 347 343 339 336 333 331 331 330 329 327 325 323 326 321 322 321 316 308 297 294 290 284 285 283
266 245 225 256 302 304 305 33 29 124 161 169 171 140 100 332 345 344 348 353 354 350 348 346 346 347 342 340 338 337 337 338 336 333 335 333 333 329 324 325 330 321 318 305 301 296 289 293 288
286 293 312 288 281 278 288 305 10 83 129 160 118 141 56 338 339 340 348 350 349 348 346 348 348 345 345 342 344 344 345 344 345 342 342 339 334 351 348 331 333 347 325 312 305 300 301 312 326
Wind_Speed_850mb
26 29 13 16 15 19 8 28 15 17 22 16 7 10 27 32 29 6 20 21 27 28 28 25 21 17 15 16 17 18 16 15 14 12 12 15 17 20 22 22 18 13 9 8 7 7 5 5 5
15 20 18 25 22 29 12 43 27 22 20 11 6 7 5 28 25 26 27 25 30 29 29 25 22 20 17 16 15 16 15 14 14 13 14 15 16 18 21 21 18 13 8 7 7 5 3 3 4
20 19 29 21 27 26 4 28 26 21 10 8 8 8 12 21 16 15 24 31 31 30 29 25 22 20 19 17 15 14 14 14 15 14 13 12 13 15 18 20 18 14 10 8 6 5 6 6 6
12 22 24 21 37 25 21 25 15 15 14 5 4 19 23 12 10 18 31 33 30 28 27 28 26 23 20 18 15 13 11 11 13 12 12 11 12 13 16 19 19 16 14 12 11 12 12 10 11
17 27 24 29 22 12 15 18 13 12 22 14 8 13 30 17 24 29 33 31 31 30 26 30 28 25 21 18 15 12 11 10 11 11 11 10 11 12 14 16 18 17 17 16 15 13 13 14 14
34 34 26 30 19 10 7 17 16 9 28 18 14 15 21 14 22 27 32 31 30 32 28 29 29 26 22 18 15 12 12 11 10 9 9 9 8 10 12 15 17 17 17 15 15 15 14 15 15
33 27 30 41 8 3 4 21 22 25 8 24 9 9 21 23 22 30 33 31 29 28 28 28 27 26 22 17 14 13 11 10 8 7 7 6 6 8 11 13 15 16 17 17 17 17 18 19 18
41 26 37 34 29 15 16 27 8 21 22 8 10 4 26 40 29 28 26 27 27 26 22 21 22 23 19 19 15 13 10 9 6 4 5 6 7 9 13 15 18 20 22 23 23 22 22 21 19
27 28 29 36 30 22 13 21 17 8 17 22 20 27 20 26 26 26 21 21 23 24 23 23 16 14 17 10 11 10 8 7 5 6 7 6 2 15 15 18 20 24 26 27 27 26 25 23 19
38 26 37 28 23 12 10 11 15 22 25 51 44 27 14 13 18 22 21 9 16 20 22 19 22 17 12 9 5 8 8 5 3 2 11 3 6 12 15 18 27 27 26 26 24 25 27 24 21
37 34 36 9 15 18 15 12 8 27 8 35 14 5 10 13 24 6 24 26 49 17 15 19 26 22 5 18 8 5 5 5 5 11 9 5 8 9 10 11 24 21 19 24 25 27 20 20 40
36 41 39 30 14 20 24 27 13 13 17 9 12 9 15 16 26 26 11 25 69 20 6 15 14 25 9 15 7 7 8 6 6 7 10 2 8 11 12 10 14 18 17 21 19 23 29 24 23
21 36 30 24 20 22 34 12 37 21 17 15 7 9 17 30 36 29 28 5 17 49 4 11 14 5 11 16 13 16 18 4 7 8 9 8 9 13 13 14 14 22 21 28 30 31 42 43 37
15 30 25 23 37 26 21 27 37 35 23 29 29 21 7 17 34 32 33 36 16 17 35 10 9 16 28 24 21 15 11 12 8 8 10 11 10 13 13 17 17 21 24 27 24 30 37 41 44
13 23 22 28 22 24 11 27 38 20 12 29 4 33 25 36 36 29 30 18 6 15 7 7 2 8 12 15 5 6 3 6 7 9 18 11 14 15 18 16 22 27 27 35 25 27 32 38 36
22 22 26 32 26 22 11 27 22 12 14 28 43 33 33 38 38 33 26 22 30 19 11 4 9 9 19 19 33 24 22 7 6 9 5 14 16 20 20 19 23 27 31 26 23 23 25 30 42
16 26 17 23 14 22 23 17 17 11 14 10 22 32 30 32 34 39 36 29 21 23 17 12 8 17 18 10 28 16 10 6 4 4 11 15 18 20 22 25 30 38 36 33 27 35 28 30 30
12 19 7 11 22 13 11 18 14 17 17 32 27 33 30 32 35 35 37 35 32 27 23 31 27 17 19 36 41 26 15 13 12 14 12 15 14 20 26 20 26 35 22 21 23 23 25 23 24
24 19 11 18 18 6 15 13 23 29 21 18 17 21 26 29 27 33 42 42 37 39 34 24 19 19 15 9 15 24 24 17 13 16 18 18 20 23 29 25 22 34 22 26 27 30 27 28 27
19 21 21 15 13 17 21 15 3 17 22 22 15 19 22 25 29 34 39 41 45 43 40 40 27 16 6 8 15 35 19 17 11 7 16 21 24 25 27 32 33 25 33 29 41 40 31 34 29
21 25 22 22 14 20 23 24 18 15 21 22 21 20 21 21 25 28 34 40 40 40 38 36 36 32 23 15 6 4 10 13 21 19 22 35 31 30 26 25 26 30 34 32 37 40 33 36 40
26 10 12 20 15 26 36 19 27 26 20 19 21 22 19 22 24 27 30 35 38 34 33 37 34 31 27 24 24 27 26 27 30 29 30 41 31 32 33 40 38 34 37 40 39 35 43 45 48
10 11 13 17 21 28 36 23 29 31 26 23 20 21 20 18 21 23 28 28 33 35 34 33 29 29 29 32 35 35 38 37 39 40 46 49 36 36 32 33 45 38 40 47 47 54 58 54 52
15 19 25 25 27 28 42 27 25 22 29 23 21 17 14 14 15 19 20 23 27 27 29 30 33 33 35 34 34 35 39 43 46 44 49 35 36 39 33 35 42 47 55 56 58 54 57 59 60
19 24 21 25 26 25 9 13 27 18 22 25 19 16 9 8 10 15 18 21 24 26 27 27 30 30 31 32 34 37 37 39 35 43 37 42 42 42 43 47 46 45 47 49 62 59 55 61 63
22 15 19 29 26 21 25 14 15 23 29 24 16 10 5 5 9 15 18 21 24 26 29 29 31 34 39 38 36 33 34 35 36 37 42 42 43 40 45 43 44 43 47 50 51 56 62 60 60
27 17 12 19 28 26 29 17 19 24 27 26 19 12 8 3 5 13 16 21 24 26 29 34 38 35 37 40 39 40 41 42 41 44 43 41 48 49 50 52 54 54 50 47 51 53 54 55 57
20 20 16 16 20 23 22 5 17 23 21 22 19 14 20 7 3 12 17 22 25 27 31 35 36 38 38 39 40 41 42 41 41 43 42 44 42 40 38 35 36 37 40 40 44 45 52 48 45
8 18 15 10 16 21 21 5 12 11 21 20 21 11 1 6 12 18 21 23 26 30 33 34 37 40 41 40 41 43 41 39 38 36 36 36 35 36 35 38 36 39 45 33 36 38 39 38 35
18 22 19 15 20 23 18 11 11 13 20 15 17 8 5 8 15 20 22 23 28 31 34 35 36 37 39 40 41 41 40 38 34 33 36 36 38 36 35 32 33 33 38 30 28 29 30 22 17
Wind_Direction_850mb
331 350 321 271 250 232 314 85 88 4 27 51 46 288 59 38 15 44 118 118 136 146 158 163 160 147 135 129 143 163 179 183 175 165 160 161 167 175 179 177 173 164 152 156 160 167 184 198 193
323 292 284 269 260 276 52 283 66 54 57 81 122 167 222 77 60 97 124 132 142 144 154 164 160 147 136 130 138 155 172 182 180 179 175 175 177 181 188 191 191 185 178 166 154 151 168 224 227
319 281 275 244 264 284 87 23 24 90 63 87 120 338 23 71 52 103 129 141 147 142 145 160 159 152 143 134 133 140 157 171 179 181 183 179 184 188 192 197 201 202 204 206 221 249 267 264 251
297 259 247 250 267 49 343 3 1 126 131 59 40 88 93 54 115 134 134 143 142 142 152 159 161 158 150 137 129 126 138 162 172 177 179 181 187 193 198 201 206 214 227 241 254 269 275 272 270
274 266 267 252 284 3 340 351 318 159 90 81 320 116 96 79 111 130 141 143 144 145 163 162 163 159 153 143 135 134 138 152 171 175 179 185 186 194 201 206 213 227 243 256 266 268 269 269 269
269 253 277 263 211 80 281 340 310 318 121 136 107 119 87 119 132 142 147 147 147 151 154 161 161 159 158 152 148 151 150 154 172 183 188 192 197 203 209 216 227 239 250 258 267 270 269 269 268
256 281 278 286 324 49 18 324 333 335 240 118 118 117 116 136 146 150 148 149 150 149 155 155 161 160 160 160 164 166 167 158 168 191 202 207 217 232 240 241 245 248 253 260 264 266 269 273 274
253 272 277 272 282 216 93 297 18 270 69 198 67 304 157 142 149 150 150 146 145 146 150 152 160 160 159 166 172 174 179 172 175 204 231 238 245 254 256 260 257 263 265 266 264 266 272 276 277
247 262 261 265 247 257 134 281 79 297 269 30 51 38 46 101 145 145 144 147 147 148 148 148 147 153 141 167 175 178 187 195 193 213 233 245 277 303 312 303 283 276 270 268 266 268 273 274 268
236 242 251 276 356 319 60 285 358 259 174 39 56 71 73 121 149 142 66 163 169 156 145 151 142 142 145 157 233 168 187 182 163 207 287 116 255 229 230 250 290 290 277 274 271 277 276 270 272
228 249 265 269 296 288 309 228 236 293 68 96 103 137 358 1 19 37 53 2 337 132 149 148 147 145 125 167 27 200 160 160 217 206 206 297 226 296 305 298 301 319 309 308 280 303 289 268 260
234 251 261 291 164 254 261 268 231 233 98 82 56 15 69 119 32 10 335 48 1 357 49 141 150 160 169 223 127 225 173 174 171 229 238 275 332 291 300 273 284 287 283 272 261 254 245 246 252
246 263 240 263 259 221 265 276 281 256 258 216 295 235 70 62 96 79 78 210 285 292 358 358 239 226 252 188 182 201 184 148 239 262 255 215 256 277 281 271 272 266 278 287 280 271 267 272 257
262 249 260 249 256 234 244 259 264 263 285 298 303 119 47 69 68 98 99 133 241 324 341 308 186 203 206 204 197 216 230 219 239 260 265 282 295 288 299 307 309 291 274 283 283 280 279 277 275
267 264 246 253 247 253 243 263 252 311 314 295 87 94 66 60 72 81 87 107 109 132 177 211 228 261 229 220 215 271 211 214 235 261 290 284 278 296 307 305 286 300 300 293 295 285 281 283 277
242 235 252 202 213 220 213 272 51 352 271 268 83 86 65 52 59 72 95 125 135 124 155 253 172 290 303 279 242 228 226 241 236 258 276 291 308 309 297 297 298 284 287 293 287 268 275 273 273
208 255 212 124 186 244 199 246 31 338 265 199 76 70 57 38 45 56 60 79 112 148 199 169 209 251 261 238 288 185 169 153 248 354 305 274 277 289 292 294 286 284 298 281 263 277 278 281 275
211 236 176 263 154 222 226 69 15 341 3 77 75 66 57 46 39 46 57 63 70 95 120 147 164 187 242 302 325 349 2 359 351 356 325 320 311 304 296 301 293 296 300 285 277 265 274 257 261
315 307 285 197 121 268 47 86 38 11 65 68 66 62 61 59 55 49 53 56 56 75 74 111 128 151 238 351 313 341 357 5 2 342 312 305 291 291 297 304 294 299 289 271 261 275 271 264 259
259 254 253 256 138 227 146 104 70 80 71 74 84 83 78 65 54 49 53 52 46 59 53 56 80 78 278 281 341 276 346 357 17 322 9 305 302 310 309 292 288 281 286 274 287 283 265 270 262
237 257 256 268 162 220 153 172 168 130 122 112 101 85 72 63 63 58 53 52 47 47 42 47 51 53 49 34 14 341 359 13 339 340 333 294 308 287 285 287 290 285 269 276 279 284 270 269 265
271 144 297 275 226 233 188 238 173 165 146 136 119 100 73 63 59 53 51 48 47 45 34 34 29 25 16 9 2 352 349 343 331 330 318 306 313 315 309 304 287 285 274 265 273 275 276 268 270
3 318 277 276 255 253 204 229 138 161 166 147 138 118 110 84 58 49 42 41 38 32 26 19 13 4 355 347 339 330 318 311 307 300 298 301 317 297 307 305 286 275 265 270 267 264 268 269 269
332 271 249 255 254 252 252 254 154 181 172 160 135 111 87 62 50 40 35 32 34 23 22 17 7 360 345 337 327 320 311 303 301 300 299 309 297 304 300 286 288 270 267 269 270 273 270 270 267
238 259 258 250 231 253 35 283 79 109 113 153 162 139 96 43 23 19 19 23 19 17 12 10 4 1 352 347 338 334 324 322 318 319 314 305 308 304 298 295 299 298 292 289 272 272 272 272 271
315 322 295 301 296 312 160 248 98 108 114 128 139 140 104 23 12 11 13 14 12 3 5 0 355 349 350 346 342 335 331 326 323 313 313 312 305 301 295 304 290 291 295 298 295 295 279 279 278
288 243 339 300 283 267 266 109 128 133 132 144 159 170 168 147 355 5 359 6 6 5 357 354 351 346 346 344 339 334 332 328 322 319 318 314 310 303 306 301 299 296 297 294 289 285 289 284 278
259 328 285 238 261 272 283 293 75 162 156 158 168 192 194 199 1 356 352 357 1 358 352 348 350 347 343 339 336 333 331 331 330 329 327 325 323 326 321 322 321 316 308 297 294 290 284 285 283
266 245 225 256 302 304 305 33 29 124 161 169 171 140 100 332 345 344 348 353 354 350 348 346 346 347 342 340 338 337 337 338 336 333 335 333 333 329 324 325 330 321 318 305 301 296 289 293 288
286 293 312 288 281 278 288 305 10 83 129 160 118 141 56 338 339 340 348 350 349 348 346 348 348 345 345 342 344 344 345 344 345 342 342 339 334 351 348 331 333 347 325 312 305 300 301 312 326